| time (UTC) | temp C | wind direction | speed KPH | gust KPH | rain 1hr cm | rain 24hr cm | rain mn cm | humidity % | barometer mb |
| 20260507150619 | 22 | 299 | 8.0 | 4.8 | 0.00 | 0.00 | 0.00 | 83 | 1016.0 |
| 20260507143619 | 20 | 300 | 6.4 | 1.6 | 0.00 | 0.00 | 0.00 | 80 | 1015.0 |
| 20260507140618 | 20 | 300 | 6.4 | 1.6 | 0.00 | 0.00 | 0.00 | 80 | 1016.0 |
| 20260507133617 | 19 | 313 | 1.6 | 0.0 | 0.00 | 0.00 | 0.00 | 78 | 1016.0 |
| 20260507130616 | 19 | 313 | 3.2 | 0.0 | 0.00 | 0.00 | 0.00 | 77 | 1016.0 |
| 20260507123615 | 16 | 53 | 4.8 | 8.0 | 0.00 | 0.00 | 0.00 | 80 | 1015.0 |
| 20260507120614 | 16 | 53 | 4.8 | 8.0 | 0.00 | 0.00 | 0.00 | 80 | 1015.0 |
| 20260507113613 | 16 | 53 | 4.8 | 8.0 | 0.00 | 0.00 | 0.00 | 80 | 1015.0 |
| 20260507110612 | 16 | 53 | 4.8 | 8.0 | 0.00 | 0.00 | 0.00 | 80 | 1015.0 |
| 20260507103611 | 16 | 53 | 4.8 | 8.0 | 0.00 | 0.00 | 0.00 | 80 | 1015.0 |
| 20260507100610 | 16 | 53 | 4.8 | 8.0 | 0.00 | 0.00 | 0.00 | 80 | 1015.0 |
| 20260507093609 | 16 | 53 | 4.8 | 8.0 | 0.00 | 0.00 | 0.00 | 80 | 1015.0 |
| 20260507090608 | 16 | 53 | 4.8 | 8.0 | 0.00 | 0.00 | 0.00 | 80 | 1015.0 |
| 20260507083607 | 16 | 53 | 4.8 | 8.0 | 0.00 | 0.00 | 0.00 | 80 | 1015.0 |
| 20260507080607 | 16 | 53 | 4.8 | 8.0 | 0.00 | 0.00 | 0.00 | 80 | 1015.0 |
| 20260507073606 | 16 | 53 | 4.8 | 8.0 | 0.00 | 0.00 | 0.00 | 80 | 1015.0 |
| 20260507070605 | 16 | 53 | 4.8 | 8.0 | 0.00 | 0.00 | 0.00 | 80 | 1015.0 |
| 20260507063604 | 16 | 53 | 4.8 | 8.0 | 0.00 | 0.00 | 0.00 | 80 | 1015.0 |
| 20260507060603 | 16 | 53 | 4.8 | 8.0 | 0.00 | 0.00 | 0.00 | 80 | 1015.0 |
| 20260507053602 | 16 | 53 | 4.8 | 8.0 | 0.00 | 0.00 | 0.00 | 80 | 1015.0 |
| 20260507050601 | 16 | 53 | 4.8 | 8.0 | 0.00 | 0.00 | 0.00 | 80 | 1016.0 |
| 20260507043600 | 17 | 53 | 4.8 | 8.0 | 0.00 | 0.00 | 0.00 | 80 | 1016.0 |
| 20260507040557 | 17 | 53 | 4.8 | 8.0 | 0.00 | 0.00 | 0.00 | 80 | 1016.0 |
| 20260507033556 | 17 | 53 | 4.8 | 8.0 | 0.00 | 0.00 | 0.00 | 80 | 1016.0 |
| 20260507030554 | 17 | 53 | 4.8 | 8.0 | 0.00 | 0.00 | 0.00 | 80 | 1016.0 |
| 20260507023553 | 17 | 53 | 4.8 | 8.0 | 0.00 | 0.00 | 0.00 | 80 | 1015.0 |
| 20260507020551 | 18 | 53 | 4.8 | 8.0 | 0.00 | 0.00 | 0.00 | 80 | 1015.0 |
| 20260507013550 | 18 | 53 | 4.8 | 8.0 | 0.00 | 0.00 | 0.00 | 80 | 1014.0 |
| 20260507010549 | 18 | 53 | 4.8 | 8.0 | 0.00 | 0.00 | 0.00 | 80 | 1014.0 |
| 20260507003548 | 18 | 53 | 4.8 | 8.0 | 0.00 | 0.00 | 0.00 | 81 | 1013.0 |
| 20260507000547 | 19 | 53 | 4.8 | 8.0 | 0.00 | 0.00 | 0.00 | 83 | 1013.0 |
| 20260506233546 | 22 | 284 | 4.8 | 1.6 | 0.00 | 0.00 | 0.00 | 80 | 1012.0 |
| 20260506230545 | 23 | 284 | 4.8 | 1.6 | 0.00 | 0.00 | 0.00 | 80 | 1011.0 |
| 20260506223544 | 23 | 284 | 4.8 | 1.6 | 0.00 | 0.00 | 0.00 | 80 | 1010.0 |
| 20260506220543 | 23 | 284 | 4.8 | 1.6 | 0.00 | 0.00 | 0.00 | 80 | 1010.0 |
| 20260506213542 | 23 | 284 | 4.8 | 1.6 | 0.00 | 0.00 | 0.00 | 80 | 1009.0 |
| 20260506210541 | 24 | 284 | 4.8 | 1.6 | 0.00 | 0.00 | 0.00 | 80 | 1009.0 |
| 20260506203540 | 24 | 284 | 4.8 | 1.6 | 0.00 | 0.00 | 0.00 | 80 | 1009.0 |
| 20260506200539 | 24 | 284 | 4.8 | 1.6 | 0.00 | 0.00 | 0.00 | 80 | 1010.0 |
| 20260506193538 | 24 | 284 | 4.8 | 1.6 | 0.00 | 0.00 | 0.00 | 79 | 1009.0 |
| 20260506190537 | 24 | 295 | 4.8 | 3.2 | 0.00 | 0.00 | 0.00 | 83 | 1010.0 |
| 20260506183536 | 24 | 210 | 12.9 | 0.0 | 0.00 | 0.00 | 0.00 | 81 | 1010.0 |
| 20260506180535 | 25 | 210 | 12.9 | 0.0 | 0.00 | 0.00 | 0.00 | 81 | 1011.0 |
| 20260506173534 | 24 | 200 | 6.4 | 0.0 | 0.00 | 0.00 | 0.00 | 83 | 1011.0 |
| 20260506170533 | 24 | 200 | 6.4 | 0.0 | 0.00 | 0.00 | 0.00 | 83 | 1013.0 |
| 20260506163532 | 25 | 200 | 6.4 | 0.0 | 0.00 | 0.00 | 0.00 | 83 | 1013.0 |
| 20260506160531 | 25 | 200 | 6.4 | 0.0 | 0.00 | 0.00 | 0.00 | 83 | 1014.0 |
| 20260506153530 | 22 | 0 | 1.6 | 0.0 | 0.00 | 0.00 | 0.00 | 94 | 1014.0 |